This is the latest recevied weather packets stored in our database for station/object SR3WXA. If no packets are shown the sender has not sent any weather packets the latest 1 day(s).
| Time | Temp. | Humidity | Pressure | Rain* | Wind** | Luminosity | Snow |
|---|---|---|---|---|---|---|---|
| 1778090312 | 12.22° C | 86% | 1006.9 hPa | 0 mm | - | 25 W/m² | - |
| 1778090012 | 12.78° C | 86% | 1006.9 hPa | 0 mm | - | 25 W/m² | - |
| 1778089712 | 12.22° C | 86% | 1006.9 hPa | 0 mm | - | 26 W/m² | - |
| 1778089412 | 12.78° C | 85% | 1006.9 hPa | 0 mm | - | 30 W/m² | - |
| 1778089112 | 12.78° C | 85% | 1006.9 hPa | 0 mm | - | 42 W/m² | - |
| 1778088812 | 12.78° C | 85% | 1006.9 hPa | 0 mm | - | 49 W/m² | - |
| 1778088512 | 12.78° C | 85% | 1006.8 hPa | 0 mm | - | 53 W/m² | - |
| 1778088212 | 12.78° C | 84% | 1006.8 hPa | 0 mm | - | 54 W/m² | - |
| 1778087912 | 13.33° C | 84% | 1006.9 hPa | 0 mm | - | 47 W/m² | - |
| 1778087612 | 13.33° C | 83% | 1006.9 hPa | 0 mm | - | 39 W/m² | - |
| 1778085884 | 14.44° C | 82% | 1006.7 hPa | 0 mm | - | 178 W/m² | - |
| 1778085843 | 14.44° C | 82% | 1006.7 hPa | 0 mm | - | 178 W/m² | - |
| 1778084939 | 14.44° C | 82% | 1006.7 hPa | 0 mm | - | 229 W/m² | - |
| 1778084304 | 14.44° C | 84% | 1006.6 hPa | 0 mm | - | 251 W/m² | - |
| 1778084272 | 14.44° C | 84% | 1006.6 hPa | 0 mm | - | 251 W/m² | - |
| 1778083971 | 14.44° C | 84% | 1006.7 hPa | 0 mm | - | 257 W/m² | - |
| 1778083672 | 14.44° C | 83% | 1006.8 hPa | 0 mm | - | 69 W/m² | - |
| 1778083071 | 15° C | 82% | 1006.6 hPa | 0 mm | - | 58 W/m² | - |
| 1778082771 | 15° C | 81% | 1006.6 hPa | 0 mm | - | 278 W/m² | - |
| 1778082171 | 15.56° C | 79% | 1006.5 hPa | 0 mm | - | 327 W/m² | - |
| 1778081926 | 16.11° C | 79% | 1006.5 hPa | 0 mm | - | 334 W/m² | - |
| 1778081871 | 16.11° C | 79% | 1006.5 hPa | 0 mm | - | 334 W/m² | - |
| 1778080992 | 16.67° C | 78% | 1006.2 hPa | 0 mm | - | 371 W/m² | - |
| 1778080692 | 17.22° C | 78% | 1006.2 hPa | 0 mm | - | 297 W/m² | - |
| 1778080392 | 17.22° C | 78% | 1006.1 hPa | 0 mm | - | 364 W/m² | - |
* Rain latest hour (hover to see other rain measurements)
** Current wind speed in m/s (hover to see current wind gust speed)